Time,TemperatureF,DewpointF,PressureIn,WindDirection,WindDirectionDegrees,WindSpeedMPH,WindSpeedGustMPH,Humidity,HourlyPrecipIn,Conditions,Clouds,dailyrainin,SoftwareType,DateUTC
2013-05-27 00:02:00,57.0,-99.9,30.13,SW,227,12.0,15.0,-999,-99.99,,,-99.99,,2013-05-27 07:02:00,
2013-05-27 00:11:00,57.0,-99.9,30.13,SW,232,12.0,14.0,-999,-99.99,,,-99.99,,2013-05-27 07:11:00,
2013-05-27 00:22:00,57.0,-99.9,30.13,SW,227,10.0,13.0,-999,-99.99,,,-99.99,,2013-05-27 07:22:00,
2013-05-27 00:32:00,57.0,-99.9,30.13,SW,225,11.0,12.0,-999,-99.99,,,-99.99,,2013-05-27 07:32:00,
2013-05-27 00:42:00,57.0,-99.9,30.13,SW,226,9.0,12.0,-999,-99.99,,,-99.99,,2013-05-27 07:42:00,
2013-05-27 00:53:00,57.0,-99.9,30.13,SW,225,9.0,11.0,-999,-99.99,,,-99.99,,2013-05-27 07:53:00,
2013-05-27 01:02:00,57.0,-99.9,30.12,SW,225,11.0,13.0,-999,-99.99,,,-99.99,,2013-05-27 08:02:00,
2013-05-27 01:12:00,56.0,-99.9,30.13,SW,220,11.0,14.0,-999,-99.99,,,-99.99,,2013-05-27 08:12:00,
2013-05-27 01:22:00,56.0,-99.9,30.13,SW,226,10.0,14.0,-999,-99.99,,,-99.99,,2013-05-27 08:22:00,
2013-05-27 01:33:00,57.0,-99.9,30.13,SW,231,10.0,12.0,-999,-99.99,,,-99.99,,2013-05-27 08:33:00,
2013-05-27 01:42:00,56.0,-99.9,30.13,SW,236,10.0,14.0,-999,-99.99,,,-99.99,,2013-05-27 08:42:00,
2013-05-27 01:52:00,57.0,-99.9,30.13,WSW,241,8.0,11.0,-999,-99.99,,,-99.99,,2013-05-27 08:52:00,
2013-05-27 02:02:00,57.0,-99.9,30.12,SW,233,5.0,9.0,-999,-99.99,,,-99.99,,2013-05-27 09:02:00,
2013-05-27 02:11:00,57.0,-99.9,30.12,SW,227,6.0,8.0,-999,-99.99,,,-99.99,,2013-05-27 09:11:00,
2013-05-27 02:22:00,57.0,-99.9,30.12,SW,227,6.0,7.0,-999,-99.99,,,-99.99,,2013-05-27 09:22:00,
2013-05-27 02:33:00,58.0,-99.9,30.12,WNW,292,6.0,10.0,-999,-99.99,,,-99.99,,2013-05-27 09:33:00,
2013-05-27 02:42:00,58.0,-99.9,30.11,WNW,292,7.0,11.0,-999,-99.99,,,-99.99,,2013-05-27 09:42:00,
2013-05-27 02:53:00,58.0,-99.9,30.11,WNW,292,9.0,12.0,-999,-99.99,,,-99.99,,2013-05-27 09:53:00,
2013-05-27 03:03:00,58.0,-99.9,30.11,WNW,286,9.0,12.0,-999,-99.99,,,-99.99,,2013-05-27 10:03:00,
2013-05-27 03:12:00,58.0,-99.9,30.11,WNW,289,9.0,14.0,-999,-99.99,,,-99.99,,2013-05-27 10:12:00,
2013-05-27 03:23:00,58.0,-99.9,30.11,West,278,10.0,13.0,-999,-99.99,,,-99.99,,2013-05-27 10:23:00,
2013-05-27 03:32:00,58.0,-99.9,30.11,WNW,290,7.0,11.0,-999,-99.99,,,-99.99,,2013-05-27 10:32:00,
2013-05-27 03:42:00,58.0,-99.9,30.11,NNW,348,2.0,7.0,-999,-99.99,,,-99.99,,2013-05-27 10:42:00,
2013-05-27 03:53:00,57.0,-99.9,30.11,North,355,4.0,6.0,-999,-99.99,,,-99.99,,2013-05-27 10:53:00,
2013-05-27 04:02:00,57.0,-99.9,30.10,WNW,302,7.0,11.0,-999,-99.99,,,-99.99,,2013-05-27 11:02:00,
2013-05-27 04:12:00,57.0,-99.9,30.10,NW,304,8.0,13.0,-999,-99.99,,,-99.99,,2013-05-27 11:12:00,
2013-05-27 04:22:00,57.0,-99.9,30.10,WNW,299,13.0,18.0,-999,-99.99,,,-99.99,,2013-05-27 11:22:00,
2013-05-27 04:32:00,57.0,-99.9,30.10,WNW,287,13.0,17.0,-999,-99.99,,,-99.99,,2013-05-27 11:32:00,
2013-05-27 04:42:00,57.0,-99.9,30.09,WNW,289,13.0,18.0,-999,-99.99,,,-99.99,,2013-05-27 11:42:00,
2013-05-27 04:52:00,57.0,-99.9,30.10,WNW,298,8.0,11.0,-999,-99.99,,,-99.99,,2013-05-27 11:52:00,
2013-05-27 05:02:00,57.0,-99.9,30.09,West,275,4.0,8.0,-999,-99.99,,,-99.99,,2013-05-27 12:02:00,
2013-05-27 05:12:00,58.0,-99.9,30.09,SSW,207,5.0,8.0,-999,-99.99,,,-99.99,,2013-05-27 12:12:00,
2013-05-27 05:22:00,58.0,-99.9,30.09,WSW,253,4.0,5.0,-999,-99.99,,,-99.99,,2013-05-27 12:22:00,
2013-05-27 05:32:00,58.0,-99.9,30.09,SW,219,4.0,5.0,-999,-99.99,,,-99.99,,2013-05-27 12:32:00,
2013-05-27 05:42:00,58.0,-99.9,30.09,SW,219,4.0,5.0,-999,-99.99,,,-99.99,,2013-05-27 12:42:00,
2013-05-27 05:52:00,58.0,-99.9,30.09,WNW,293,6.0,9.0,-999,-99.99,,,-99.99,,2013-05-27 12:52:00,
2013-05-27 06:02:00,58.0,-99.9,30.09,WNW,291,8.0,13.0,-999,-99.99,,,-99.99,,2013-05-27 13:02:00,
2013-05-27 06:11:00,58.0,-99.9,30.09,WNW,295,9.0,13.0,-999,-99.99,,,-99.99,,2013-05-27 13:11:00,
2013-05-27 06:22:00,58.0,-99.9,30.10,WNW,297,6.0,11.0,-999,-99.99,,,-99.99,,2013-05-27 13:22:00,
2013-05-27 06:32:00,58.0,-99.9,30.10,WNW,292,7.0,10.0,-999,-99.99,,,-99.99,,2013-05-27 13:32:00,
2013-05-27 06:42:00,58.0,-99.9,30.10,WNW,297,8.0,10.0,-999,-99.99,,,-99.99,,2013-05-27 13:42:00,
2013-05-27 06:53:00,58.0,-99.9,30.10,WNW,298,6.0,11.0,-999,-99.99,,,-99.99,,2013-05-27 13:53:00,
2013-05-27 07:02:00,59.0,-99.9,30.10,WNW,300,4.0,6.0,-999,-99.99,,,-99.99,,2013-05-27 14:02:00,
2013-05-27 07:11:00,59.0,-99.9,30.10,WNW,297,4.0,6.0,-999,-99.99,,,-99.99,,2013-05-27 14:11:00,
2013-05-27 07:22:00,59.0,-99.9,30.10,SW,234,2.0,5.0,-999,-99.99,,,-99.99,,2013-05-27 14:22:00,
2013-05-27 07:32:00,60.0,-99.9,30.10,WNW,298,8.0,13.0,-999,-99.99,,,-99.99,,2013-05-27 14:32:00,
2013-05-27 07:42:00,60.0,-99.9,30.10,WNW,297,9.0,13.0,-999,-99.99,,,-99.99,,2013-05-27 14:42:00,
2013-05-27 07:52:00,-999.0,-99.9,-100.00,WNW,299,13.0,18.0,-999,-99.99,,,-99.99,,2013-05-27 14:52:00,
2013-05-27 08:02:00,60.0,-99.9,30.10,WNW,301,11.0,17.0,-999,-99.99,,,-99.99,,2013-05-27 15:02:00,
2013-05-27 08:11:00,60.0,-99.9,30.10,WNW,293,10.0,15.0,-999,-99.99,,,-99.99,,2013-05-27 15:11:00,
2013-05-27 08:22:00,60.0,-99.9,30.10,WNW,289,6.0,9.0,-999,-99.99,,,-99.99,,2013-05-27 15:22:00,
2013-05-27 08:33:00,60.0,-99.9,30.10,WNW,294,7.0,8.0,-999,-99.99,,,-99.99,,2013-05-27 15:33:00,
2013-05-27 08:43:00,60.0,-99.9,30.11,WNW,286,5.0,9.0,-999,-99.99,,,-99.99,,2013-05-27 15:43:00,
2013-05-27 08:53:00,60.0,-99.9,30.11,WNW,286,5.0,9.0,-999,-99.99,,,-99.99,,2013-05-27 15:53:00,
2013-05-27 09:03:00,61.0,-99.9,30.11,WNW,287,9.0,12.0,-999,-99.99,,,-99.99,,2013-05-27 16:03:00,
2013-05-27 09:12:00,61.0,-99.9,30.11,WNW,300,6.0,9.0,-999,-99.99,,,-99.99,,2013-05-27 16:12:00,
2013-05-27 09:23:00,61.0,-99.9,30.11,WNW,290,7.0,10.0,-999,-99.99,,,-99.99,,2013-05-27 16:23:00,
2013-05-27 09:33:00,62.0,-99.9,30.11,WNW,285,8.0,11.0,-999,-99.99,,,-99.99,,2013-05-27 16:33:00,
2013-05-27 09:42:00,62.0,-99.9,30.11,WNW,285,8.0,11.0,-999,-99.99,,,-99.99,,2013-05-27 16:42:00,
2013-05-27 09:53:00,62.0,-99.9,30.11,WNW,285,8.0,11.0,-999,-99.99,,,-99.99,,2013-05-27 16:53:00,
2013-05-27 10:02:00,62.0,-99.9,30.11,WNW,298,13.0,20.0,-999,-99.99,,,-99.99,,2013-05-27 17:02:00,
2013-05-27 10:12:00,62.0,-99.9,30.11,WNW,298,13.0,20.0,-999,-99.99,,,-99.99,,2013-05-27 17:12:00,
2013-05-27 10:22:00,62.0,-99.9,30.11,WNW,298,13.0,20.0,-999,-99.99,,,-99.99,,2013-05-27 17:22:00,
2013-05-27 10:32:00,62.0,-99.9,30.10,WNW,291,9.0,13.0,-999,-99.99,,,-99.99,,2013-05-27 17:32:00,
2013-05-27 10:43:00,62.0,-99.9,30.10,WNW,291,9.0,13.0,-999,-99.99,,,-99.99,,2013-05-27 17:43:00,
2013-05-27 10:52:00,63.0,-99.9,30.10,WNW,286,7.0,12.0,-999,-99.99,,,-99.99,,2013-05-27 17:52:00,
2013-05-27 11:02:00,63.0,-99.9,30.10,WNW,297,5.0,9.0,-999,-99.99,,,-99.99,,2013-05-27 18:02:00,
2013-05-27 11:11:00,63.0,-99.9,30.10,WNW,297,5.0,9.0,-999,-99.99,,,-99.99,,2013-05-27 18:11:00,
2013-05-27 11:22:00,60.0,-99.9,30.09,SSW,197,7.0,11.0,-999,-99.99,,,-99.99,,2013-05-27 18:22:00,
2013-05-27 11:32:00,59.0,-99.9,30.10,SW,218,10.0,13.0,-999,-99.99,,,-99.99,,2013-05-27 18:32:00,
2013-05-27 11:42:00,59.0,-99.9,30.10,SW,221,11.0,13.0,-999,-99.99,,,-99.99,,2013-05-27 18:42:00,
2013-05-27 11:52:00,60.0,-99.9,30.11,SW,227,11.0,13.0,-999,-99.99,,,-99.99,,2013-05-27 18:52:00,
2013-05-27 12:01:00,58.0,-99.9,30.12,SW,232,9.0,13.0,-999,-99.99,,,-99.99,,2013-05-27 19:01:00,
2013-05-27 12:11:00,58.0,-99.9,30.12,WSW,238,9.0,12.0,-999,-99.99,,,-99.99,,2013-05-27 19:11:00,
2013-05-27 12:22:00,58.0,-99.9,30.12,WSW,238,9.0,12.0,-999,-99.99,,,-99.99,,2013-05-27 19:22:00,
2013-05-27 12:32:00,59.0,-99.9,30.12,WSW,237,7.0,10.0,-999,-99.99,,,-99.99,,2013-05-27 19:32:00,
2013-05-27 12:42:00,59.0,-99.9,30.12,SW,230,8.0,11.0,-999,-99.99,,,-99.99,,2013-05-27 19:42:00,
2013-05-27 12:52:00,59.0,-99.9,30.12,WSW,250,9.0,11.0,-999,-99.99,,,-99.99,,2013-05-27 19:52:00,
2013-05-27 13:02:00,60.0,-99.9,30.12,WSW,247,7.0,10.0,-999,-99.99,,,-99.99,,2013-05-27 20:02:00,
2013-05-27 13:11:00,60.0,-99.9,30.12,WSW,250,8.0,11.0,-999,-99.99,,,-99.99,,2013-05-27 20:11:00,
2013-05-27 13:22:00,60.0,-99.9,30.12,WSW,239,8.0,11.0,-999,-99.99,,,-99.99,,2013-05-27 20:22:00,
2013-05-27 13:32:00,59.0,-99.9,30.12,SW,229,10.0,11.0,-999,-99.99,,,-99.99,,2013-05-27 20:32:00,
2013-05-27 13:42:00,59.0,-99.9,30.13,SW,223,10.0,12.0,-999,-99.99,,,-99.99,,2013-05-27 20:42:00,
2013-05-27 13:53:00,59.0,-99.9,30.12,SW,225,9.0,12.0,-999,-99.99,,,-99.99,,2013-05-27 20:53:00,
2013-05-27 14:01:00,60.0,-99.9,30.12,SW,224,10.0,11.0,-999,-99.99,,,-99.99,,2013-05-27 21:01:00,
2013-05-27 14:12:00,60.0,-99.9,30.12,SW,224,10.0,11.0,-999,-99.99,,,-99.99,,2013-05-27 21:12:00,
2013-05-27 14:22:00,60.0,-99.9,30.12,WSW,237,11.0,15.0,-999,-99.99,,,-99.99,,2013-05-27 21:22:00,
2013-05-27 14:33:00,60.0,-99.9,30.12,WSW,239,13.0,16.0,-999,-99.99,,,-99.99,,2013-05-27 21:33:00,
2013-05-27 14:43:00,60.0,-99.9,30.12,WSW,239,13.0,16.0,-999,-99.99,,,-99.99,,2013-05-27 21:43:00,
2013-05-27 14:53:00,58.0,-99.9,30.12,WSW,237,12.0,18.0,-999,-99.99,,,-99.99,,2013-05-27 21:53:00,
2013-05-27 15:03:00,58.0,-99.9,30.12,SW,236,12.0,16.0,-999,-99.99,,,-99.99,,2013-05-27 22:03:00,
2013-05-27 15:13:00,58.0,-99.9,30.12,SW,236,12.0,16.0,-999,-99.99,,,-99.99,,2013-05-27 22:13:00,
2013-05-27 15:23:00,58.0,-99.9,30.11,SW,224,13.0,16.0,-999,-99.99,,,-99.99,,2013-05-27 22:23:00,
2013-05-27 15:33:00,58.0,-99.9,30.11,SW,229,14.0,17.0,-999,-99.99,,,-99.99,,2013-05-27 22:33:00,
2013-05-27 15:42:00,58.0,-99.9,30.11,SW,229,13.0,16.0,-999,-99.99,,,-99.99,,2013-05-27 22:42:00,
2013-05-27 15:53:00,58.0,-99.9,30.11,SW,232,12.0,15.0,-999,-99.99,,,-99.99,,2013-05-27 22:53:00,
2013-05-27 16:02:00,58.0,-99.9,30.11,SSW,212,9.0,15.0,-999,-99.99,,,-99.99,,2013-05-27 23:02:00,
2013-05-27 16:12:00,58.0,-99.9,30.11,SSW,212,9.0,15.0,-999,-99.99,,,-99.99,,2013-05-27 23:12:00,
2013-05-27 16:22:00,58.0,-99.9,30.11,SW,229,12.0,14.0,-999,-99.99,,,-99.99,,2013-05-27 23:22:00,
2013-05-27 16:32:00,58.0,-99.9,30.11,SW,231,11.0,14.0,-999,-99.99,,,-99.99,,2013-05-27 23:32:00,
2013-05-27 16:42:00,58.0,-99.9,30.10,SW,234,12.0,14.0,-999,-99.99,,,-99.99,,2013-05-27 23:42:00,
2013-05-27 16:52:00,59.0,-99.9,30.11,SW,231,11.0,15.0,-999,-99.99,,,-99.99,,2013-05-27 23:52:00,
2013-05-27 17:01:00,59.0,-99.9,30.10,SW,226,11.0,14.0,-999,-99.99,,,-99.99,,2013-05-28 00:01:00,
2013-05-27 17:11:00,59.0,-99.9,30.10,SW,227,11.0,13.0,-999,-99.99,,,-99.99,,2013-05-28 00:11:00,
2013-05-27 17:22:00,59.0,-99.9,30.10,SW,231,11.0,16.0,-999,-99.99,,,-99.99,,2013-05-28 00:22:00,
2013-05-27 17:32:00,59.0,-99.9,30.10,SSW,213,7.0,12.0,-999,-99.99,,,-99.99,,2013-05-28 00:32:00,
2013-05-27 17:42:00,59.0,-99.9,30.10,SSW,213,7.0,12.0,-999,-99.99,,,-99.99,,2013-05-28 00:42:00,
2013-05-27 17:52:00,57.0,-99.9,30.10,SSW,206,9.0,13.0,-999,-99.99,,,-99.99,,2013-05-28 00:52:00,
2013-05-27 18:01:00,57.0,-99.9,30.09,SW,222,12.0,15.0,-999,-99.99,,,-99.99,,2013-05-28 01:01:00,
2013-05-27 18:11:00,57.0,-99.9,30.09,SW,222,12.0,15.0,-999,-99.99,,,-99.99,,2013-05-28 01:11:00,
2013-05-27 18:22:00,57.0,-99.9,30.09,SW,223,10.0,14.0,-999,-99.99,,,-99.99,,2013-05-28 01:22:00,
2013-05-27 18:32:00,57.0,-99.9,30.08,SW,220,9.0,13.0,-999,-99.99,,,-99.99,,2013-05-28 01:32:00,
2013-05-27 18:42:00,56.0,-99.9,30.07,SW,223,11.0,14.0,-999,-99.99,,,-99.99,,2013-05-28 01:42:00,
2013-05-27 18:52:00,56.0,-99.9,30.07,SW,225,12.0,14.0,-999,-99.99,,,-99.99,,2013-05-28 01:52:00,
2013-05-27 19:02:00,56.0,-99.9,30.07,SW,225,11.0,13.0,-999,-99.99,,,-99.99,,2013-05-28 02:02:00,
2013-05-27 19:11:00,56.0,-99.9,30.07,SW,225,11.0,13.0,-999,-99.99,,,-99.99,,2013-05-28 02:11:00,
2013-05-27 19:22:00,57.0,-99.9,30.07,SW,218,7.0,9.0,-999,-99.99,,,-99.99,,2013-05-28 02:22:00,
2013-05-27 19:32:00,57.0,-99.9,30.07,SSW,205,7.0,10.0,-999,-99.99,,,-99.99,,2013-05-28 02:32:00,
2013-05-27 19:42:00,57.0,-99.9,30.06,SW,216,6.0,9.0,-999,-99.99,,,-99.99,,2013-05-28 02:42:00,
2013-05-27 19:52:00,57.0,-99.9,30.06,SSW,204,6.0,8.0,-999,-99.99,,,-99.99,,2013-05-28 02:52:00,
2013-05-27 20:01:00,57.0,-99.9,30.06,SW,222,9.0,11.0,-999,-99.99,,,-99.99,,2013-05-28 03:01:00,
2013-05-27 20:11:00,57.0,-99.9,30.06,SW,214,7.0,10.0,-999,-99.99,,,-99.99,,2013-05-28 03:11:00,
2013-05-27 20:22:00,58.0,-99.9,30.06,SW,224,8.0,11.0,-999,-99.99,,,-99.99,,2013-05-28 03:22:00,
2013-05-27 20:33:00,58.0,-99.9,30.06,SW,220,9.0,11.0,-999,-99.99,,,-99.99,,2013-05-28 03:33:00,
2013-05-27 20:43:00,58.0,-99.9,30.05,SW,214,7.0,11.0,-999,-99.99,,,-99.99,,2013-05-28 03:43:00,
2013-05-27 20:53:00,58.0,-99.9,30.05,SW,214,7.0,11.0,-999,-99.99,,,-99.99,,2013-05-28 03:53:00,
2013-05-27 21:03:00,58.0,-99.9,30.05,SW,222,8.0,12.0,-999,-99.99,,,-99.99,,2013-05-28 04:03:00,
2013-05-27 21:13:00,58.0,-99.9,30.04,SW,215,7.0,11.0,-999,-99.99,,,-99.99,,2013-05-28 04:13:00,
2013-05-27 21:23:00,58.0,-99.9,30.04,SW,218,6.0,10.0,-999,-99.99,,,-99.99,,2013-05-28 04:23:00,
2013-05-27 21:33:00,58.0,-99.9,30.04,SSW,202,6.0,9.0,-999,-99.99,,,-99.99,,2013-05-28 04:33:00,
2013-05-27 21:43:00,58.0,-99.9,30.04,SSW,202,6.0,9.0,-999,-99.99,,,-99.99,,2013-05-28 04:43:00,
2013-05-27 21:53:00,58.0,-99.9,30.03,SSW,204,6.0,9.0,-999,-99.99,,,-99.99,,2013-05-28 04:53:00,
2013-05-27 22:02:00,58.0,-99.9,30.03,SW,223,8.0,11.0,-999,-99.99,,,-99.99,,2013-05-28 05:02:00,
2013-05-27 22:12:00,58.0,-99.9,30.04,SW,226,9.0,11.0,-999,-99.99,,,-99.99,,2013-05-28 05:12:00,
2013-05-27 22:22:00,58.0,-99.9,30.04,SW,228,12.0,14.0,-999,-99.99,,,-99.99,,2013-05-28 05:22:00,
2013-05-27 22:33:00,58.0,-99.9,30.04,SW,226,12.0,15.0,-999,-99.99,,,-99.99,,2013-05-28 05:33:00,
2013-05-27 22:42:00,58.0,-99.9,30.04,SW,226,12.0,15.0,-999,-99.99,,,-99.99,,2013-05-28 05:42:00,
2013-05-27 22:52:00,58.0,-99.9,30.04,SW,228,11.0,13.0,-999,-99.99,,,-99.99,,2013-05-28 05:52:00,
2013-05-27 23:02:00,58.0,-99.9,30.04,SW,228,11.0,15.0,-999,-99.99,,,-99.99,,2013-05-28 06:02:00,
2013-05-27 23:12:00,58.0,-99.9,30.04,SW,228,11.0,15.0,-999,-99.99,,,-99.99,,2013-05-28 06:12:00,
2013-05-27 23:22:00,58.0,-99.9,30.03,SW,225,13.0,15.0,-999,-99.99,,,-99.99,,2013-05-28 06:22:00,
2013-05-27 23:32:00,58.0,-99.9,30.02,SW,224,12.0,15.0,-999,-99.99,,,-99.99,,2013-05-28 06:32:00,
2013-05-27 23:42:00,58.0,-99.9,30.02,SW,224,11.0,15.0,-999,-99.99,,,-99.99,,2013-05-28 06:42:00,
2013-05-27 23:52:00,58.0,-99.9,30.01,SW,222,12.0,15.0,-999,-99.99,,,-99.99,,2013-05-28 06:52:00,